This is the latest recevied weather packets stored in our database for station/object K7AEL. If no packets are shown the sender has not sent any weather packets the latest 10 day(s).
| Time | Temp. | Humidity | Pressure | Rain* | Wind** | Luminosity | Snow |
|---|---|---|---|---|---|---|---|
| 1777437486 | 21.11° C | 22% | 1016.4 hPa | 0 mm | - | 0 W/m² | - |
| 1777437183 | 20.56° C | 21% | 1016.1 hPa | 0 mm | - | 0 W/m² | - |
| 1777436879 | 21.11° C | 21% | 1015.9 hPa | 0 mm | - | 0 W/m² | - |
| 1777436577 | 21.11° C | 21% | 1016 hPa | 0 mm | - | 0 W/m² | - |
| 1777436272 | 21.11° C | 20% | 1016 hPa | 0 mm | - | 0 W/m² | - |
| 1777435968 | 21.67° C | 19% | 1016 hPa | 0 mm | - | 0 W/m² | - |
| 1777435665 | 21.67° C | 19% | 1015.9 hPa | 0 mm | - | 0 W/m² | - |
| 1777435361 | 22.22° C | 19% | 1015.9 hPa | 0 mm | - | 0 W/m² | - |
| 1777435060 | 22.78° C | 19% | 1016.1 hPa | 0 mm | - | 0 W/m² | - |
| 1777434756 | 22.78° C | 18% | 1016 hPa | 0 mm | - | 0 W/m² | - |
| 1777434450 | 22.78° C | 19% | 1015.8 hPa | 0 mm | - | 0 W/m² | - |
| 1777434148 | 22.78° C | 19% | 1015.7 hPa | 0 mm | - | 0 W/m² | - |
| 1777433844 | 22.78° C | 18% | 1015.9 hPa | 0 mm | - | 0 W/m² | - |
| 1777433541 | 23.33° C | 18% | 1015.7 hPa | 0 mm | - | 0 W/m² | - |
| 1777433236 | 23.33° C | 17% | 1015.6 hPa | 0 mm | - | 0 W/m² | - |
| 1777432933 | 23.33° C | 17% | 1015.6 hPa | 0 mm | - | 0 W/m² | - |
| 1777432632 | 23.33° C | 17% | 1015.4 hPa | 0 mm | - | 0 W/m² | - |
| 1777432330 | 23.33° C | 17% | 1015.6 hPa | 0 mm | - | 0 W/m² | - |
| 1777432029 | 23.89° C | 17% | 1015.7 hPa | 0 mm | - | 0 W/m² | - |
| 1777431724 | 23.89° C | 17% | 1015.6 hPa | 0 mm | - | 0 W/m² | - |
| 1777431421 | 23.89° C | 16% | 1015.4 hPa | 0 mm | - | 0 W/m² | - |
| 1777431117 | 24.44° C | 16% | 1015.2 hPa | 0 mm | - | 0 W/m² | - |
| 1777430812 | 24.44° C | 16% | 1015.1 hPa | 0 mm | - | 0 W/m² | - |
| 1777430509 | 24.44° C | 16% | 1015 hPa | 0 mm | - | 0 W/m² | - |
| 1777430204 | 25° C | 16% | 1014.8 hPa | 0 mm | - | 0 W/m² | - |
* Rain latest hour (hover to see other rain measurements)
** Current wind speed in m/s (hover to see current wind gust speed)